Location: Gajan
(43.0218°N, 1.1244°E)
Time: 07:11:53
(UTC+00:00)

COSMOS 2455 - Pass Details

Date: 22 April 2021
Orbit: 902 x 907 km, 67.1° (Epoch: 08 May)

Event Time Altitude Azimuth Distance (km) Brightness Sun altitude
Rises 19:39:13 0° 167° (SSE) 3,514 5.5 -9.7°
Reaches altitude 10° 19:42:17 10° 152° (SSE) 2,579 4.7 -10.2°
Maximum altitude 19:46:38 21° 105° (ESE) 1,904 4.0 -10.9°
Drops below altitude 10° 19:51:00 10° 58° (ENE) 2,594 5.0 -11.6°
Sets 19:54:05 0° 43° (NE) 3,541 5.8 -12.1°
